| time (UTC) | temp F | wind direction | speed MPH | gust MPH | rain 1hr in | rain 24hr in | rain mn in | humidity % | barometer mb |
| 20260510010057 | 51 | 135 | 3.0 | 12.0 | 0.00 | 0.37 | 0.37 | 88 | 1008.6 |
| 20260510003018 | 52 | 158 | 2.0 | 12.0 | 0.00 | 0.37 | 0.37 | 87 | 1008.5 |
| 20260510000016 | 52 | 158 | 1.0 | 10.0 | 0.00 | 0.37 | 0.37 | 87 | 1008.1 |
| 20260509233017 | 53 | 135 | 1.0 | 8.0 | 0.00 | 0.37 | 0.37 | 87 | 1008.0 |
| 20260509230016 | 53 | 158 | 2.0 | 9.0 | 0.00 | 0.37 | 0.37 | 87 | 1007.7 |
| 20260509223056 | 53 | 158 | 2.0 | 12.0 | 0.00 | 0.37 | 0.37 | 88 | 1007.6 |
| 20260509220016 | 53 | 158 | 3.0 | 11.0 | 0.00 | 0.37 | 0.37 | 87 | 1007.7 |
| 20260509213058 | 52 | 135 | 4.0 | 14.0 | 0.00 | 0.37 | 0.37 | 89 | 1007.8 |
| 20260509210016 | 52 | 158 | 5.0 | 20.0 | 0.01 | 0.37 | 0.37 | 89 | 1008.1 |
| 20260509203016 | 52 | 158 | 5.0 | 15.0 | 0.01 | 0.37 | 0.37 | 90 | 1008.3 |
| 20260509200016 | 51 | 158 | 4.0 | 16.0 | 0.00 | 0.36 | 0.36 | 91 | 1008.4 |
| 20260509193016 | 51 | 180 | 2.0 | 10.0 | 0.00 | 0.36 | 0.36 | 91 | 1008.7 |
| 20260509190016 | 50 | 158 | 3.0 | 14.0 | 0.00 | 0.36 | 0.36 | 91 | 1008.8 |
| 20260509183016 | 50 | 158 | 3.0 | 17.0 | 0.00 | 0.36 | 0.36 | 91 | 1008.9 |
| 20260509180016 | 51 | 135 | 4.0 | 13.0 | 0.00 | 0.36 | 0.36 | 91 | 1008.9 |
| 20260509173016 | 50 | 135 | 5.0 | 13.0 | 0.00 | 0.36 | 0.36 | 91 | 1008.7 |
| 20260509170024 | 50 | 135 | 5.0 | 13.0 | 0.01 | 0.36 | 0.36 | 92 | 1008.8 |
| 20260509163018 | 50 | 135 | 5.0 | 11.0 | 0.03 | 0.37 | 0.36 | 93 | 1009.2 |
| 20260509160016 | 49 | 135 | 4.0 | 11.0 | 0.06 | 0.38 | 0.35 | 93 | 1009.8 |
| 20260509153016 | 49 | 135 | 5.0 | 15.0 | 0.07 | 0.37 | 0.33 | 93 | 1010.2 |
| 20260509150036 | 48 | 135 | 4.0 | 13.0 | 0.04 | 0.34 | 0.29 | 93 | 1010.3 |
| 20260509143016 | 48 | 135 | 5.0 | 13.0 | 0.04 | 0.34 | 0.26 | 94 | 1010.4 |
| 20260509140016 | 48 | 135 | 2.0 | 9.0 | 0.06 | 0.34 | 0.25 | 94 | 1010.3 |
| 20260509133016 | 47 | 135 | 4.0 | 13.0 | 0.05 | 0.31 | 0.22 | 94 | 1010.6 |
| 20260509130016 | 47 | 135 | 1.0 | 8.0 | 0.05 | 0.28 | 0.19 | 95 | 1010.7 |
| 20260509123015 | 46 | 0.0 | 4.0 | 0.08 | 0.26 | 0.17 | 95 | 1010.9 | |
| 20260509120015 | 45 | 0.0 | 3.0 | 0.08 | 0.23 | 0.14 | 95 | 1011.0 | |
| 20260509113015 | 45 | 0.0 | 2.0 | 0.04 | 0.18 | 0.09 | 94 | 1011.1 | |
| 20260509110015 | 44 | 0.0 | 4.0 | 0.01 | 0.15 | 0.06 | 94 | 1011.1 | |
| 20260509103038 | 43 | 0.0 | 0.0 | 0.00 | 0.14 | 0.05 | 94 | 1010.9 | |
| 20260509100017 | 43 | 0.0 | 0.0 | 0.00 | 0.14 | 0.05 | 93 | 1010.8 | |
| 20260509093018 | 43 | 0.0 | 0.0 | 0.01 | 0.14 | 0.05 | 93 | 1010.5 | |
| 20260509090017 | 43 | 0.0 | 0.0 | 0.03 | 0.14 | 0.05 | 92 | 1011.1 | |
| 20260509083019 | 42 | 90 | 1.0 | 6.0 | 0.04 | 0.13 | 0.04 | 91 | 1011.2 |
| 20260509080017 | 41 | 0.0 | 6.0 | 0.02 | 0.11 | 0.02 | 86 | 1011.1 | |
| 20260509073017 | 42 | 0.0 | 3.0 | 0.00 | 0.09 | 0.00 | 79 | 1011.1 | |
| 20260509070017 | 42 | 0.0 | 0.0 | 0.00 | 0.09 | 0.00 | 73 | 1010.8 | |
| 20260509063017 | 42 | 0.0 | 0.0 | 0.00 | 0.09 | 0.00 | 70 | 1011.1 | |
| 20260509060022 | 42 | 0.0 | 0.0 | 0.00 | 0.09 | 0.00 | 69 | 1011.1 | |
| 20260509053017 | 41 | 0.0 | 0.0 | 0.00 | 0.09 | 0.00 | 71 | 1011.2 | |
| 20260509050017 | 40 | 0.0 | 0.0 | 0.00 | 0.09 | 0.00 | 72 | 1011.2 | |
| 20260509043019 | 41 | 0.0 | 0.0 | 0.00 | 0.09 | 0.00 | 71 | 1011.3 | |
| 20260509040017 | 42 | 0.0 | 0.0 | 0.00 | 0.09 | 0.09 | 68 | 1011.3 | |
| 20260509033017 | 42 | 0.0 | 0.0 | 0.00 | 0.09 | 0.09 | 68 | 1011.4 | |
| 20260509030016 | 44 | 0.0 | 0.0 | 0.00 | 0.09 | 0.09 | 62 | 1011.7 | |
| 20260509023022 | 45 | 0.0 | 0.0 | 0.00 | 0.09 | 0.09 | 59 | 1012.2 | |
| 20260509020017 | 46 | 0.0 | 0.0 | 0.00 | 0.09 | 0.09 | 58 | 1012.3 | |
| 20260509013018 | 47 | 0.0 | 0.0 | 0.00 | 0.09 | 0.09 | 58 | 1012.1 |